Regional Weather Roundup
Issued by NWS

Home | Current Version | Previous Version | Graphics & Text | Print | Product List | Glossary On
Versions: 1 2 3 4 5 6 7 8 9 10 11 12 13 14 15 16 17 18 19 20 21 22 23 24 25 26 27 28 29 30 31 32 33 34 35 36 37 38 39 40 41 42 43 44 45 46 47 48 49 50
000
ASUS43 KDMX 271101
RWRIA

WEATHER ROUNDUP FOR IOWA
NATIONAL WEATHER SERVICE DES MOINES IA
600 AM CDT SAT MAY 27 2017

NOTE: "FAIR" INDICATES FEW OR NO CLOUDS BELOW 12,000 FEET WITH NO
SIGNIFICANT WEATHER AND/OR OBSTRUCTIONS TO VISIBILITY.

* - THESE STATIONS ARE NOT NWS STATIONS...THUS NOT UNDER NWS
QUALITY CONTROL.  THEY ALSO DO NOT REPORT WEATHER SUCH
AS PRECIPITATION OR FOG.

IAZ001>003-012>014-020>022-031>034-043>046-271200-
   NORTHWEST IOWA

CITY           SKY/WX    TMP DP  RH WIND       PRES   REMARKS
CARROLL *      MOCLDY    52  48  87 CALM      29.89R
CHEROKEE *     CLOUDY    49  49  99 CALM      29.90R
DENISON *      MOCLDY    54  46  76 CALM      29.90S
LE MARS *      CLOUDY    55  48  76 CALM      29.91R
ORANGE CITY *  CLOUDY    59  45  58 NE6       29.91R
SHELDON *      CLOUDY    54  45  71 CALM      29.89R
SIOUX CITY     CLOUDY    54  50  86 NW6       29.89R
SPENCER        MOCLDY    50  46  86 CALM      29.90R
STORM LAKE *   MOCLDY    57  45  62 NE7       29.90S
$$

IAZ055>058-069>071-079>083-090>094-271200-
   SOUTHWEST IOWA

CITY           SKY/WX    TMP DP  RH WIND       PRES   REMARKS
ATLANTIC *     CLOUDY    55  48  76 CALM      29.88R
AUDUBON *      CLOUDY    55  48  76 CALM      29.89S
CLARINDA *     CLOUDY    61  52  72 N6        29.87S
COUNCIL BLFS * CLOUDY    55  50  82 NE6       29.88R
CRESTON *      CLOUDY    59  50  72 NE8G15    29.89R
HARLAN  *      MOCLDY    57  46  67 N3        29.91S
LAMONI         CLOUDY    60  59  96 NE5       29.86F FOG
RED OAK *      CLOUDY    57  50  77 NE6       29.87R
SHENANDOAH *   CLOUDY    61  50  67 NE6       29.86R
$$

IAZ047>049-059>061-072>074-084-271200-
   CENTRAL IOWA

CITY           SKY/WX    TMP DP  RH WIND       PRES   REMARKS
AMES           FOG       55  55 100 CALM      29.88S VSB<1/4
ANKENY *       FOG       55  55 100 N3        29.89R VSB<1/4
BOONE *        CLOUDY    55  50  82 NE6       29.87S
CHARITON *     FOG       57  57 100 NE5       29.88S VSB 1/2
DES MOINES     FOG       61  59  93 E6        29.87S VSB 1
GRINNELL*      FOG       53  52  97 E3        29.90F VSB<1/4
KNOXVILLE *    FOG       59  59 100 E5        29.87S VSB 1/2
MARSHALLTOWN   FOG       52  52 100 CALM      29.88F VSB<1/4
NEWTON *       CLOUDY    55  54  94 NE5       29.87F FOG
PELLA *        FOG       57  56  97 CALM      29.89F VSB 3/4
PERRY *          N/A     57  50  76 N5        29.88S
$$

IAZ004>006-015-016-023>025-035-036-271200-
   NORTH CENTRAL IOWA

CITY           SKY/WX    TMP DP  RH WIND       PRES   REMARKS
ALGONA *       CLOUDY    54  46  76 N5        29.89F
CLARION *      CLEAR     52  50  93 CALM      29.89S
ESTHERVILLE    CLOUDY    48  46  93 NW3       29.89S
FORT DODGE *   CLOUDY    48  46  93 CALM      29.88F
MASON CITY     CLEAR     50  46  86 W3        29.90S
FOREST CITY *    N/A     46  36  66 CALM      29.89S
WEBSTER CITY * CLEAR     52  46  82 CALM      29.87S
IOWA FALLS *   FOG       52  52  98 CALM      29.89F VSB<1/4
$$

IAZ007>011-017>019-026>030-037>042-050>054-066-271200-
   NORTHEAST IOWA

CITY           SKY/WX    TMP DP  RH WIND       PRES   REMARKS
CEDAR RAPIDS   FOG       54  54 100 N6        29.90R VSB 1/16
CHARLES CITY * FOG       54  54 100 CALM      29.89S VSB<1/4
CLINTON *      FOG       56  56 100 N5        29.91R VSB<1/4
DECORAH *      FOG       59  57  94 CALM      29.88F VSB<1/4
DUBUQUE        CLEAR     50  48  93 CALM      29.91S FOG
MONTICELLO *   FOG       52  52 100 CALM      29.91S VSB<1/4
OELWEIN *      FOG       59  59 100 S8        29.90S VSB<1/4
WATERLOO       FOG       50  49  96 SE3       29.88F VSB<1/4
$$

IAZ064-065-067-068-078-271200-
   EAST CENTRAL IOWA

CITY           SKY/WX    TMP DP  RH WIND       PRES   REMARKS
DAVENPORT      FOG       57  55  93 N6        29.91R VSB 1/2
IOWA CITY      CLOUDY    52  50  93 CALM      29.92R FOG
MT. PLEASANT * HVY RAIN  55  55 100 N3        29.90R VSB 1/4
MUSCATINE *    FOG       57  57 100 CALM      29.91R VSB<1/4
QUAD CITIES    FOG       58  57  97 CALM      29.90R VSB 1/4
$$

IAZ062-063-075>077-085>089-095>099-271200-
   SOUTHEAST IOWA

CITY           SKY/WX    TMP DP  RH WIND       PRES   REMARKS
BURLINGTON     FOG       59  59 100 CALM      29.89R VSB<1/4
FAIRFIELD *    FOG       54  54 100 NE5       29.89S VSB<1/4
FORT MADISON * FOG       55  55 100 CALM      29.90R VSB<1/4
KEOKUK *       FOG       54  54 100 NE3       29.87F VSB<1/4
OSKALOOSA *    FOG       55  54  98 NE5       29.89S VSB<1/4
OTTUMWA        FOG       57  57 100 NE5       29.89R VSB<1/4
WASHINGTON *   FOG       55  55 100 CALM      29.91R VSB<1/4
$$

ABBREVIATIONS USED IN REMARKS
   TC - TEMPERATURES IN CELSIUS
  WCI - WIND CHILL INDEX
   HX - HEAT INDEX
  VSB - VISIBILITY
$$





USA.gov is the U.S. government's official web portal to all federal, state and local government web resources and services.